Find OneWeb SL0504

NORAD ID: 54122 Int'l Des: 2022-138 Owner: ONEWEBN Country: UK Constellation: oneweb operational
別名: ONEWEB-0504 spacetrack, celestrak
LEOCIRCULARPOLARONEWEB_TYPE

現在のビュー

3D地球を読み込み中...

About OneWeb SL0504

OneWeb SL0504 (NORAD 54122) is a oneweb constellation satellite launched Oct 22, 2022 by ONEWEBN of UK. It operates in LEO, CIRCULAR, POLAR, ONEWEB_TYPE orbit with a mass of 148.00 kg.

次回通過

Passes for default location (London). Set your location on the main map for personalized predictions.

高度履歴

Loading altitude history...

軌道要素

1 54122U 22138K 26238.41043660 .00000079 00000-0 16580-3 0 9994
2 54122 87.9150 290.9862 0002270 96.7532 263.3859 13.19724511186099
Epoch: Aug 26, 2026 • Age: 11 hours

現在のステータス

高度 1197.6 km
遠地点 / 近地点 N/A
速度 7.26 km/s
衛星直下点 79.88°N, 9.9°E
打ち上げ日 Oct 22, 2022
運用期間 3.8 years
タイプ internet

技術仕様

分類 Payload
質量 148.00 kg
乾燥質量 140.00 kg
総質量 148.00 kg
長さ 1.30 m
直径 1.00 m
スパン 5.00 m
形状 Trapezoid+2 pan
製造者 ONEWUS
バスタイプ ARROW
フェーズステータス In Orbit
所有者/国 ONEWEBN/UK

Most Searched